Location: Qu�bec
(46.8000°N, 71.2500°W)
Time: 21:01:57
(UTC-04:00)

Envisat - Visible Passes

Search period start: 17 July 2018 00:00
Search period end: 27 July 2018 00:00
Orbit: 764 x 766 km, 98.2° (Epoch: 17 July)

Date Brightness Start Highest point End Pass type
(mag) Time Alt. Az. Time Alt. Az. Time Alt. Az.
17 Jul 5.7 21:23:06 10° WSW 21:25:50 14° W 21:28:35 10° NW visible
20 Jul 5.6 21:11:06 10° SW 21:14:31 18° W 21:17:59 10° NW visible
22 Jul 6.1 21:39:49 10° W 21:40:28 10° W 21:41:08 10° WNW visible
23 Jul 5.4 20:59:19 10° SW 21:03:15 22° W 21:07:12 10° NW visible
25 Jul 5.8 21:26:46 10° WSW 21:29:08 13° W 21:31:31 10° WNW visible
